Overview Statistics Trail Chart Weather Telemetry Raw packets
 

This is the latest recevied weather packets stored in our database for station/object KY0TEQ-13. If no packets are shown the sender has not sent any weather packets the latest 10 day(s).

<< 98 99 100 101 102 103 104 >>
Time Temp. Humidity Pressure Rain* Wind** Luminosity Snow
1787953761 31.11° C 17% 1309.4 hPa 0 mm - 472 W/m² -
1787953456 31.67° C 16% 1309.7 hPa 0 mm - 480 W/m² -
1787953154 30.56° C 16% 1309.5 hPa 0 mm - 450 W/m² -
1787952853 31.11° C 16% 1309.7 hPa 0 mm - 271 W/m² -
1787952549 31.11° C 15% 1309.9 hPa 0 mm - 437 W/m² -
1787952247 31.11° C 14% 1310 hPa 0 mm - 478 W/m² -
1787951944 31.11° C 15% 1310.1 hPa 0 mm - 560 W/m² -
1787951639 32.22° C 14% 1310.4 hPa 0 mm - 592 W/m² -
1787951335 31.67° C 14% 1310.7 hPa 0 mm - 680 W/m² -
1787951030 31.67° C 14% 1310.6 hPa 0 mm - 683 W/m² -
1787950726 31.67° C 17% 1310.6 hPa 0 mm - 672 W/m² -
1787950422 30.56° C 18% 1311 hPa 0 mm - 764 W/m² -
1787950117 30.56° C 18% 1311.1 hPa 0 mm - 666 W/m² -
1787949813 31.67° C 17% 1311 hPa 0 mm - 399 W/m² -
1787949507 30.56° C 19% 1311 hPa 0 mm - 704 W/m² -
1787949203 30° C 20% 1311.1 hPa 0 mm - 499 W/m² -
1787948898 30.56° C 20% 1311.1 hPa 0 mm - 731 W/m² -
1787948593 29.44° C 21% 1311.2 hPa 0 mm - 722 W/m² -
1787948289 30° C 20% 1311.3 hPa 0 mm - 604 W/m² -
1787947988 30° C 21% 1311.6 hPa 0 mm - 618 W/m² -
1787947687 30° C 21% 1311.7 hPa 0 mm - 475 W/m² -
1787947381 29.44° C 22% 1311.7 hPa 0 mm - 489 W/m² -
1787947080 30.56° C 22% 1311.9 hPa 0 mm - 593 W/m² -
1787946774 30.56° C 21% 1311.9 hPa 0 mm - 571 W/m² -
1787946472 30° C 22% 1311.9 hPa 0 mm - 357 W/m² -

* Rain latest hour (hover to see other rain measurements)
** Current wind speed in m/s (hover to see current wind gust speed)